DELTA 1 DEB, 10824

Orbit data source: Space-Track

DELTA 1 DEB, 10824 is space debris in SSO originally from a launch on Thu, 29 Jul 1976 UTC launched from the Air Force Western Test Range (AFWTR). Debris objects in space refer to the collection of defunct objects orbiting the Earth. Examples of debris include non-operational satellites, rocket bodies, and fragments generated from explosions, collisions, or faulty payload assembly.

Loading next visibility...
Identifier
10824, 1976-077BU
Orbit
SSO
Country
Flag of USUS
Related business
Manufacturer
Unknown
Mission
Spacecraft
Bus & Motor
Unknown
Mass
Unknown
Launch date (UTC)
1976-07-29 (49 years ago)
Launch vehicle
Unknown
Launch site
Air Force Western Test Range (AFWTR)
Object type
Payload
Rocket body
Debris
Shape & HBR
Unknown shape, 0.1 m
Radar Cross Section
Small (<0.1 m²)

Expand to show TLE details & history
Last TLE update: 16 hours ago

TLE from 16 hours ago
0 DELTA 1 DEB
1 10824U 76077BU  25290.99551124  .00032490  00000-0  22684-1 0  9997
2 10824 101.8729 104.9079 0041258 314.8640 196.7446 13.97950257346874
Epoch: 2025-10-17T23:53Z
TLE epoch observation values (Epoch: 2025-10-17T23:53:32.171Z)
Latitude
27.90687°
Longitude
-93.8495°
Altitude
932.958 km
Speed
7.373 km/s
True Right ascension
19h 25m 04s
True Declination
27° 46' 06"
Sunlit
Object was in daylight at epoch
Visualization orbit readout
Latitude
Unknown
Longitude
Unknown
Altitude
Unknown
Speed
Unknown
Apparent Right ascension
Unknown
Apparent Declination
Unknown
Sunlit
N/A
Visualization observer readout
Local Sidereal Time
10:32:30
Azimuth
Unknown
Elevation
Unknown
Doppler factor
Unknown
Orbital elements
Apogee altitude
928.287 km
Perigee altitude
868.245 km
Semi-major axis
7,276.403 km
Eccentricity
0.00413
Inclination
101.8729°
RAAN
104.9079°
Arg. of periapsis
314.864°
True anomaly
196.60906°
Mean anomaly
196.7446°
Eccentric anomaly
196.67676°
Mean motion
3.49678 °/min
Orbital period
102.95 mins
BSTAR
0.022684
Loading maneuver chart data...
Computing Atmospheric mass density...
Loading historical data...
Loading historical data...
Loading historical data...
Loading historical data...
Loading historical data...
Loading historical data...
Loading historical data...

Documentation

Showing up to 5 results
|